Location: Hope
(40.9110°N, 74.9680°W)
Time: 06:20:36
(UTC-05:00)

N. Korean satellite - Visible Passes

Search period start: 24 January 2019 00:00
Search period end: 03 February 2019 00:00
Orbit: 458 x 509 km, 97.2° (Epoch: 23 January)

Date Brightness Start Highest point End Pass type
(mag) Time Alt. Az. Time Alt. Az. Time Alt. Az.
24 Jan 7.0 06:07:28 10° NNE 06:11:09 67° E 06:14:45 10° S visible
24 Jan 9.6 18:16:53 10° SW 18:19:42 21° W 18:22:34 10° NW visible
25 Jan 8.6 05:43:07 10° NNE 05:46:25 31° E 05:49:39 10° SSE visible
25 Jan 8.2 17:51:25 10° S 17:54:55 41° W 17:58:29 10° NNW visible
26 Jan 9.8 05:19:19 10° NE 05:21:35 16° E 05:23:51 10° SE visible
27 Jan 6.5 06:26:54 10° N 06:30:32 65° WNW 06:34:05 10° SSW visible
27 Jan 10.2 18:37:43 10° WSW 18:39:16 12° W 18:40:48 10° WNW visible
28 Jan 7.3 06:02:16 10° NNE 06:05:52 57° E 06:09:24 10° S visible
28 Jan 9.4 18:11:22 10° SSW 18:14:24 24° W 18:17:29 10° NW visible
29 Jan 8.9 05:37:58 10° NE 05:41:06 27° E 05:44:11 10° SSE visible
29 Jan 7.8 17:46:02 10° S 17:49:38 48° W 17:53:16 10° NNW visible
30 Jan 10.0 05:14:23 10° ENE 05:16:15 13° E 05:18:05 10° ESE visible
31 Jan 6.5 06:21:36 10° N 06:25:14 76° WNW 06:28:47 10° SSW visible
31 Jan 10.1 18:31:54 10° SW 18:33:55 14° W 18:35:57 10° WNW visible
01 Feb 7.7 05:57:01 10° NNE 06:00:32 48° E 06:03:59 10° S visible
01 Feb 9.1 18:05:52 10° SSW 18:09:04 27° W 18:12:19 10° NW visible
02 Feb 9.2 05:32:49 10° NE 05:35:45 23° E 05:38:37 10° SSE visible
02 Feb 7.5 17:40:39 10° S 17:44:19 57° W 17:48:00 10° NNW visible
